Location: Dos Palmas
(32.4468°N, 116.8732°W)
Time: 02:14:51
(UTC+00:00)

Cosmos 1464 Rocket - Pass Details

Date: 20 June 2021
Orbit: 953 x 1001 km, 82.9° (Epoch: 27 July)

Event Time Altitude Azimuth Distance (km) Brightness Sun altitude
Rises 06:44:10 0° 357° (N) 3,721 8.1 -32.0°
Reaches altitude 10° 06:46:43 10° 360° (N) 2,771 7.2 -32.2°
Enters shadow 06:52:14 62° 38° (NE) 1,117 4.3 -32.5°
